owner,sensor,date,latitude,longitude,vertical_datum,sea_water_temperature,qcFlag 
ENP,ioos.station.NOAA.NDBC:CWAF1:1,2019-10-01T00:00:00Z,25.2970,-81.0130,1.0,28.8,11111222 
ENP,ioos.station.NOAA.NDBC:CWAF1:1,2019-10-01T01:00:00Z,25.2970,-81.0130,1.0,28.6,11111222 
ENP,ioos.station.NOAA.NDBC:CWAF1:1,2019-10-01T03:00:00Z,25.2970,-81.0130,1.0,28.08,11111222 
ENP,ioos.station.NOAA.NDBC:CWAF1:1,2019-10-01T04:00:00Z,25.2970,-81.0130,1.0,27.89,11111222 
ENP,ioos.station.NOAA.NDBC:CWAF1:1,2019-10-01T05:00:00Z,25.2970,-81.0130,1.0,27.62,11111222 
ENP,ioos.station.NOAA.NDBC:CWAF1:1,2019-10-01T06:00:00Z,25.2970,-81.0130,1.0,27.39,11111222 
ENP,ioos.station.NOAA.NDBC:CWAF1:1,2019-10-01T07:00:00Z,25.2970,-81.0130,1.0,27.39,11111222 
ENP,ioos.station.NOAA.NDBC:CWAF1:1,2019-10-01T08:00:00Z,25.2970,-81.0130,1.0,27.31,11111222 
ENP,ioos.station.NOAA.NDBC:CWAF1:1,2019-10-01T09:00:00Z,25.2970,-81.0130,1.0,27.03,11111222 
ENP,ioos.station.NOAA.NDBC:CWAF1:1,2019-10-01T10:00:00Z,25.2970,-81.0130,1.0,27.1,11111222 
ENP,ioos.station.NOAA.NDBC:CWAF1:1,2019-10-01T11:00:00Z,25.2970,-81.0130,1.0,26.99,11111222 
ENP,ioos.station.NOAA.NDBC:CWAF1:1,2019-10-01T12:00:00Z,25.2970,-81.0130,1.0,27.07,11111222 
ENP,ioos.station.NOAA.NDBC:CWAF1:1,2019-10-01T13:00:00Z,25.2970,-81.0130,1.0,26.8,11111222 
ENP,ioos.station.NOAA.NDBC:CWAF1:1,2019-10-01T14:00:00Z,25.2970,-81.0130,1.0,26.85,11111222 
ENP,ioos.station.NOAA.NDBC:CWAF1:1,2019-10-01T15:00:00Z,25.2970,-81.0130,1.0,26.87,11111222 
ENP,ioos.station.NOAA.NDBC:CWAF1:1,2019-10-01T16:00:00Z,25.2970,-81.0130,1.0,27.18,11111222 
ENP,ioos.station.NOAA.NDBC:CWAF1:1,2019-10-01T17:00:00Z,25.2970,-81.0130,1.0,27.64,11111222 
ENP,ioos.station.NOAA.NDBC:CWAF1:1,2019-10-01T18:00:00Z,25.2970,-81.0130,1.0,28.03,11111222 
ENP,ioos.station.NOAA.NDBC:CWAF1:1,2019-10-01T19:00:00Z,25.2970,-81.0130,1.0,28.22,11111222 
ENP,ioos.station.NOAA.NDBC:CWAF1:1,2019-10-01T20:00:00Z,25.2970,-81.0130,1.0,28.4,11111222 
ENP,ioos.station.NOAA.NDBC:CWAF1:1,2019-10-01T21:00:00Z,25.2970,-81.0130,1.0,28.56,11111222 
ENP,ioos.station.NOAA.NDBC:CWAF1:1,2019-10-01T22:00:00Z,25.2970,-81.0130,1.0,28.34,11111222 
ENP,ioos.station.NOAA.NDBC:CWAF1:1,2019-10-01T23:00:00Z,25.2970,-81.0130,1.0,28.27,11111222 
ENP,ioos.station.NOAA.NDBC:CWAF1:1,2019-10-02T00:00:00Z,25.2970,-81.0130,1.0,28.06,11111222 
ENP,ioos.station.NOAA.NDBC:CWAF1:1,2019-10-02T01:00:00Z,25.2970,-81.0130,1.0,27.93,11111222 
ENP,ioos.station.NOAA.NDBC:CWAF1:1,2019-10-02T03:00:00Z,25.2970,-81.0130,1.0,27.57,11111222 
ENP,ioos.station.NOAA.NDBC:CWAF1:1,2019-10-02T04:00:00Z,25.2970,-81.0130,1.0,27.38,11111222 
ENP,ioos.station.NOAA.NDBC:CWAF1:1,2019-10-02T05:00:00Z,25.2970,-81.0130,1.0,27.22,11111222 
ENP,ioos.station.NOAA.NDBC:CWAF1:1,2019-10-02T06:00:00Z,25.2970,-81.0130,1.0,27.07,11111222 
ENP,ioos.station.NOAA.NDBC:CWAF1:1,2019-10-02T07:00:00Z,25.2970,-81.0130,1.0,26.98,11111222 
ENP,ioos.station.NOAA.NDBC:CWAF1:1,2019-10-02T08:00:00Z,25.2970,-81.0130,1.0,26.96,11111222 
ENP,ioos.station.NOAA.NDBC:CWAF1:1,2019-10-02T09:00:00Z,25.2970,-81.0130,1.0,26.67,11111222 
ENP,ioos.station.NOAA.NDBC:CWAF1:1,2019-10-02T10:00:00Z,25.2970,-81.0130,1.0,26.8,11111222 
ENP,ioos.station.NOAA.NDBC:CWAF1:1,2019-10-02T11:00:00Z,25.2970,-81.0130,1.0,26.84,11111222 
ENP,ioos.station.NOAA.NDBC:CWAF1:1,2019-10-02T12:00:00Z,25.2970,-81.0130,1.0,27.06,11111222 
ENP,ioos.station.NOAA.NDBC:CWAF1:1,2019-10-02T13:00:00Z,25.2970,-81.0130,1.0,27.14,11111222 
ENP,ioos.station.NOAA.NDBC:CWAF1:1,2019-10-02T14:00:00Z,25.2970,-81.0130,1.0,27.14,11111222 
ENP,ioos.station.NOAA.NDBC:CWAF1:1,2019-10-02T15:00:00Z,25.2970,-81.0130,1.0,27.19,11111222 
ENP,ioos.station.NOAA.NDBC:CWAF1:1,2019-10-02T16:00:00Z,25.2970,-81.0130,1.0,27.41,11111222 
ENP,ioos.station.NOAA.NDBC:CWAF1:1,2019-10-02T17:00:00Z,25.2970,-81.0130,1.0,27.43,11111222 
ENP,ioos.station.NOAA.NDBC:CWAF1:1,2019-10-02T18:00:00Z,25.2970,-81.0130,1.0,27.66,11111222 
ENP,ioos.station.NOAA.NDBC:CWAF1:1,2019-10-02T19:00:00Z,25.2970,-81.0130,1.0,28.06,11111222 
ENP,ioos.station.NOAA.NDBC:CWAF1:1,2019-10-02T20:00:00Z,25.2970,-81.0130,1.0,28.34,11111222 
ENP,ioos.station.NOAA.NDBC:CWAF1:1,2019-10-02T21:00:00Z,25.2970,-81.0130,1.0,28.46,11111222 
ENP,ioos.station.NOAA.NDBC:CWAF1:1,2019-10-02T22:00:00Z,25.2970,-81.0130,1.0,28.5,11111222 
ENP,ioos.station.NOAA.NDBC:CWAF1:1,2019-10-03T03:00:00Z,25.2970,-81.0130,1.0,27.69,11111222 
ENP,ioos.station.NOAA.NDBC:CWAF1:1,2019-10-03T04:00:00Z,25.2970,-81.0130,1.0,27.58,11111222 
ENP,ioos.station.NOAA.NDBC:CWAF1:1,2019-10-03T16:00:00Z,25.2970,-81.0130,1.0,27.77,11111222 
ENP,ioos.station.NOAA.NDBC:CWAF1:1,2019-10-03T17:00:00Z,25.2970,-81.0130,1.0,28.02,11111222 
ENP,ioos.station.NOAA.NDBC:CWAF1:1,2019-10-03T18:00:00Z,25.2970,-81.0130,1.0,28.25,11111222 
ENP,ioos.station.NOAA.NDBC:CWAF1:1,2019-10-03T19:00:00Z,25.2970,-81.0130,1.0,28.53,11111222 
ENP,ioos.station.NOAA.NDBC:CWAF1:1,2019-10-03T20:00:00Z,25.2970,-81.0130,1.0,29.42,11111222 
ENP,ioos.station.NOAA.NDBC:CWAF1:1,2019-10-03T21:00:00Z,25.2970,-81.0130,1.0,29.89,11111222 
ENP,ioos.station.NOAA.NDBC:CWAF1:1,2019-10-03T22:00:00Z,25.2970,-81.0130,1.0,29.27,11111222 
ENP,ioos.station.NOAA.NDBC:CWAF1:1,2019-10-03T23:00:00Z,25.2970,-81.0130,1.0,28.79,11111222 
ENP,ioos.station.NOAA.NDBC:CWAF1:1,2019-10-04T01:00:00Z,25.2970,-81.0130,1.0,28.36,11111222 
ENP,ioos.station.NOAA.NDBC:CWAF1:1,2019-10-04T03:00:00Z,25.2970,-81.0130,1.0,28.59,11111222 
ENP,ioos.station.NOAA.NDBC:CWAF1:1,2019-10-04T04:00:00Z,25.2970,-81.0130,1.0,28.52,11111222 
ENP,ioos.station.NOAA.NDBC:CWAF1:1,2019-10-04T05:00:00Z,25.2970,-81.0130,1.0,28.15,11111222 
ENP,ioos.station.NOAA.NDBC:CWAF1:1,2019-10-04T06:00:00Z,25.2970,-81.0130,1.0,28.01,11111222 
ENP,ioos.station.NOAA.NDBC:CWAF1:1,2019-10-04T07:00:00Z,25.2970,-81.0130,1.0,27.32,11111222 
ENP,ioos.station.NOAA.NDBC:CWAF1:1,2019-10-04T08:00:00Z,25.2970,-81.0130,1.0,27.26,11111222 
ENP,ioos.station.NOAA.NDBC:CWAF1:1,2019-10-04T09:00:00Z,25.2970,-81.0130,1.0,27.34,11111222 
ENP,ioos.station.NOAA.NDBC:CWAF1:1,2019-10-04T10:00:00Z,25.2970,-81.0130,1.0,27.54,11111222 
ENP,ioos.station.NOAA.NDBC:CWAF1:1,2019-10-04T11:00:00Z,25.2970,-81.0130,1.0,27.85,11111222 
ENP,ioos.station.NOAA.NDBC:CWAF1:1,2019-10-04T12:00:00Z,25.2970,-81.0130,1.0,27.86,11111222 
ENP,ioos.station.NOAA.NDBC:CWAF1:1,2019-10-04T13:00:00Z,25.2970,-81.0130,1.0,27.82,11111222 
ENP,ioos.station.NOAA.NDBC:CWAF1:1,2019-10-04T14:00:00Z,25.2970,-81.0130,1.0,27.75,11111222 
ENP,ioos.station.NOAA.NDBC:CWAF1:1,2019-10-04T15:00:00Z,25.2970,-81.0130,1.0,27.86,11111222 
ENP,ioos.station.NOAA.NDBC:CWAF1:1,2019-10-04T16:00:00Z,25.2970,-81.0130,1.0,28.01,11111222 
ENP,ioos.station.NOAA.NDBC:CWAF1:1,2019-10-04T17:00:00Z,25.2970,-81.0130,1.0,28.26,11111222 
ENP,ioos.station.NOAA.NDBC:CWAF1:1,2019-10-04T18:00:00Z,25.2970,-81.0130,1.0,28.56,11111222 
ENP,ioos.station.NOAA.NDBC:CWAF1:1,2019-10-04T19:00:00Z,25.2970,-81.0130,1.0,28.86,11111222 
ENP,ioos.station.NOAA.NDBC:CWAF1:1,2019-10-04T20:00:00Z,25.2970,-81.0130,1.0,29.54,11111222 
ENP,ioos.station.NOAA.NDBC:CWAF1:1,2019-10-04T21:00:00Z,25.2970,-81.0130,1.0,30.04,11111222 
ENP,ioos.station.NOAA.NDBC:CWAF1:1,2019-10-04T22:00:00Z,25.2970,-81.0130,1.0,30.15,11111222 
ENP,ioos.station.NOAA.NDBC:CWAF1:1,2019-10-04T23:00:00Z,25.2970,-81.0130,1.0,29.46,11111222 
ENP,ioos.station.NOAA.NDBC:CWAF1:1,2019-10-05T01:00:00Z,25.2970,-81.0130,1.0,28.86,11111222 
ENP,ioos.station.NOAA.NDBC:CWAF1:1,2019-10-05T03:00:00Z,25.2970,-81.0130,1.0,28.99,11111222 
ENP,ioos.station.NOAA.NDBC:CWAF1:1,2019-10-05T04:00:00Z,25.2970,-81.0130,1.0,29.0,11111222 
ENP,ioos.station.NOAA.NDBC:CWAF1:1,2019-10-05T05:00:00Z,25.2970,-81.0130,1.0,28.95,11111222 
ENP,ioos.station.NOAA.NDBC:CWAF1:1,2019-10-05T06:00:00Z,25.2970,-81.0130,1.0,28.92,11111222 
ENP,ioos.station.NOAA.NDBC:CWAF1:1,2019-10-05T07:00:00Z,25.2970,-81.0130,1.0,28.64,11111222 
ENP,ioos.station.NOAA.NDBC:CWAF1:1,2019-10-05T08:00:00Z,25.2970,-81.0130,1.0,27.72,11111222 
ENP,ioos.station.NOAA.NDBC:CWAF1:1,2019-10-05T09:00:00Z,25.2970,-81.0130,1.0,27.5,11111222 
ENP,ioos.station.NOAA.NDBC:CWAF1:1,2019-10-05T10:00:00Z,25.2970,-81.0130,1.0,28.34,11111222 
ENP,ioos.station.NOAA.NDBC:CWAF1:1,2019-10-05T11:00:00Z,25.2970,-81.0130,1.0,27.73,11111222 
ENP,ioos.station.NOAA.NDBC:CWAF1:1,2019-10-05T12:00:00Z,25.2970,-81.0130,1.0,28.23,11111222 
ENP,ioos.station.NOAA.NDBC:CWAF1:1,2019-10-05T13:00:00Z,25.2970,-81.0130,1.0,28.21,11111222 
ENP,ioos.station.NOAA.NDBC:CWAF1:1,2019-10-05T14:00:00Z,25.2970,-81.0130,1.0,28.25,11111222 
ENP,ioos.station.NOAA.NDBC:CWAF1:1,2019-10-05T15:00:00Z,25.2970,-81.0130,1.0,28.25,11111222 
ENP,ioos.station.NOAA.NDBC:CWAF1:1,2019-10-05T16:00:00Z,25.2970,-81.0130,1.0,28.4,11111222 
ENP,ioos.station.NOAA.NDBC:CWAF1:1,2019-10-05T17:00:00Z,25.2970,-81.0130,1.0,28.62,11111222 
ENP,ioos.station.NOAA.NDBC:CWAF1:1,2019-10-05T18:00:00Z,25.2970,-81.0130,1.0,28.95,11111222 
ENP,ioos.station.NOAA.NDBC:CWAF1:1,2019-10-05T19:00:00Z,25.2970,-81.0130,1.0,29.24,11111222 
ENP,ioos.station.NOAA.NDBC:CWAF1:1,2019-10-05T20:00:00Z,25.2970,-81.0130,1.0,29.59,11111222 
ENP,ioos.station.NOAA.NDBC:CWAF1:1,2019-10-05T21:00:00Z,25.2970,-81.0130,1.0,29.81,11111222 
ENP,ioos.station.NOAA.NDBC:CWAF1:1,2019-10-05T22:00:00Z,25.2970,-81.0130,1.0,30.08,11111222 
ENP,ioos.station.NOAA.NDBC:CWAF1:1,2019-10-05T23:00:00Z,25.2970,-81.0130,1.0,29.68,11111222 
ENP,ioos.station.NOAA.NDBC:CWAF1:1,2019-10-06T00:00:00Z,25.2970,-81.0130,1.0,29.18,11111222 
ENP,ioos.station.NOAA.NDBC:CWAF1:1,2019-10-06T01:00:00Z,25.2970,-81.0130,1.0,28.88,11111222 
ENP,ioos.station.NOAA.NDBC:CWAF1:1,2019-10-06T03:00:00Z,25.2970,-81.0130,1.0,28.37,11111222 
ENP,ioos.station.NOAA.NDBC:CWAF1:1,2019-10-06T04:00:00Z,25.2970,-81.0130,1.0,28.33,11111222 
ENP,ioos.station.NOAA.NDBC:CWAF1:1,2019-10-06T05:00:00Z,25.2970,-81.0130,1.0,28.21,11111222 
ENP,ioos.station.NOAA.NDBC:CWAF1:1,2019-10-06T06:00:00Z,25.2970,-81.0130,1.0,28.64,11111222 
ENP,ioos.station.NOAA.NDBC:CWAF1:1,2019-10-06T07:00:00Z,25.2970,-81.0130,1.0,28.11,11111222 
ENP,ioos.station.NOAA.NDBC:CWAF1:1,2019-10-06T08:00:00Z,25.2970,-81.0130,1.0,27.74,11111222 
ENP,ioos.station.NOAA.NDBC:CWAF1:1,2019-10-06T09:00:00Z,25.2970,-81.0130,1.0,27.57,11111222 
ENP,ioos.station.NOAA.NDBC:CWAF1:1,2019-10-06T10:00:00Z,25.2970,-81.0130,1.0,27.51,11111222 
ENP,ioos.station.NOAA.NDBC:CWAF1:1,2019-10-06T11:00:00Z,25.2970,-81.0130,1.0,27.55,11111222 
ENP,ioos.station.NOAA.NDBC:CWAF1:1,2019-10-06T12:00:00Z,25.2970,-81.0130,1.0,27.55,11111222 
ENP,ioos.station.NOAA.NDBC:CWAF1:1,2019-10-06T13:00:00Z,25.2970,-81.0130,1.0,27.21,11111222 
ENP,ioos.station.NOAA.NDBC:CWAF1:1,2019-10-06T14:00:00Z,25.2970,-81.0130,1.0,27.45,11111222 
ENP,ioos.station.NOAA.NDBC:CWAF1:1,2019-10-06T15:00:00Z,25.2970,-81.0130,1.0,27.7,11111222 
ENP,ioos.station.NOAA.NDBC:CWAF1:1,2019-10-06T16:00:00Z,25.2970,-81.0130,1.0,27.99,11111222 
ENP,ioos.station.NOAA.NDBC:CWAF1:1,2019-10-06T17:00:00Z,25.2970,-81.0130,1.0,28.44,11111222 
ENP,ioos.station.NOAA.NDBC:CWAF1:1,2019-10-06T18:00:00Z,25.2970,-81.0130,1.0,28.86,11111222 
ENP,ioos.station.NOAA.NDBC:CWAF1:1,2019-10-06T19:00:00Z,25.2970,-81.0130,1.0,29.28,11111222 
ENP,ioos.station.NOAA.NDBC:CWAF1:1,2019-10-06T20:00:00Z,25.2970,-81.0130,1.0,29.46,11111222 
ENP,ioos.station.NOAA.NDBC:CWAF1:1,2019-10-06T21:00:00Z,25.2970,-81.0130,1.0,29.57,11111222 
ENP,ioos.station.NOAA.NDBC:CWAF1:1,2019-10-06T22:00:00Z,25.2970,-81.0130,1.0,29.51,11111222 
ENP,ioos.station.NOAA.NDBC:CWAF1:1,2019-10-06T23:00:00Z,25.2970,-81.0130,1.0,29.26,11111222 
ENP,ioos.station.NOAA.NDBC:CWAF1:1,2019-10-07T01:00:00Z,25.2970,-81.0130,1.0,28.73,11111222 
ENP,ioos.station.NOAA.NDBC:CWAF1:1,2019-10-07T03:00:00Z,25.2970,-81.0130,1.0,28.18,11111222 
ENP,ioos.station.NOAA.NDBC:CWAF1:1,2019-10-07T04:00:00Z,25.2970,-81.0130,1.0,27.9,11111222 
ENP,ioos.station.NOAA.NDBC:CWAF1:1,2019-10-07T05:00:00Z,25.2970,-81.0130,1.0,27.93,11111222 
ENP,ioos.station.NOAA.NDBC:CWAF1:1,2019-10-07T06:00:00Z,25.2970,-81.0130,1.0,27.95,11111222 
ENP,ioos.station.NOAA.NDBC:CWAF1:1,2019-10-07T07:00:00Z,25.2970,-81.0130,1.0,28.52,11111222 
ENP,ioos.station.NOAA.NDBC:CWAF1:1,2019-10-07T08:00:00Z,25.2970,-81.0130,1.0,28.52,11111222 
ENP,ioos.station.NOAA.NDBC:CWAF1:1,2019-10-07T09:00:00Z,25.2970,-81.0130,1.0,28.44,11111222 
ENP,ioos.station.NOAA.NDBC:CWAF1:1,2019-10-07T10:00:00Z,25.2970,-81.0130,1.0,28.27,11111222 
ENP,ioos.station.NOAA.NDBC:CWAF1:1,2019-10-07T11:00:00Z,25.2970,-81.0130,1.0,27.84,11111222 
ENP,ioos.station.NOAA.NDBC:CWAF1:1,2019-10-07T13:00:00Z,25.2970,-81.0130,1.0,27.21,11111222 
ENP,ioos.station.NOAA.NDBC:CWAF1:1,2019-10-07T14:00:00Z,25.2970,-81.0130,1.0,27.45,11111222 
ENP,ioos.station.NOAA.NDBC:CWAF1:1,2019-10-07T15:00:00Z,25.2970,-81.0130,1.0,28.1,11111222 
ENP,ioos.station.NOAA.NDBC:CWAF1:1,2019-10-07T16:00:00Z,25.2970,-81.0130,1.0,28.15,11111222 
ENP,ioos.station.NOAA.NDBC:CWAF1:1,2019-10-07T17:00:00Z,25.2970,-81.0130,1.0,28.04,11111222 
ENP,ioos.station.NOAA.NDBC:CWAF1:1,2019-10-07T18:00:00Z,25.2970,-81.0130,1.0,28.18,11111222 
ENP,ioos.station.NOAA.NDBC:CWAF1:1,2019-10-07T19:00:00Z,25.2970,-81.0130,1.0,28.24,11111222 
ENP,ioos.station.NOAA.NDBC:CWAF1:1,2019-10-07T20:00:00Z,25.2970,-81.0130,1.0,28.31,11111222 
ENP,ioos.station.NOAA.NDBC:CWAF1:1,2019-10-07T22:00:00Z,25.2970,-81.0130,1.0,28.3,11111222 
ENP,ioos.station.NOAA.NDBC:CWAF1:1,2019-10-08T01:00:00Z,25.2970,-81.0130,1.0,27.78,11111222 
ENP,ioos.station.NOAA.NDBC:CWAF1:1,2019-10-08T03:00:00Z,25.2970,-81.0130,1.0,27.77,11111222 
ENP,ioos.station.NOAA.NDBC:CWAF1:1,2019-10-08T05:00:00Z,25.2970,-81.0130,1.0,27.73,11111222 
ENP,ioos.station.NOAA.NDBC:CWAF1:1,2019-10-08T06:00:00Z,25.2970,-81.0130,1.0,27.71,11111222 
ENP,ioos.station.NOAA.NDBC:CWAF1:1,2019-10-08T07:00:00Z,25.2970,-81.0130,1.0,27.71,11111222 
ENP,ioos.station.NOAA.NDBC:CWAF1:1,2019-10-08T08:00:00Z,25.2970,-81.0130,1.0,27.74,11111222 
ENP,ioos.station.NOAA.NDBC:CWAF1:1,2019-10-08T09:00:00Z,25.2970,-81.0130,1.0,27.78,11111222 
ENP,ioos.station.NOAA.NDBC:CWAF1:1,2019-10-08T10:00:00Z,25.2970,-81.0130,1.0,27.78,11111222 
ENP,ioos.station.NOAA.NDBC:CWAF1:1,2019-10-08T11:00:00Z,25.2970,-81.0130,1.0,27.78,11111222 
ENP,ioos.station.NOAA.NDBC:CWAF1:1,2019-10-08T13:00:00Z,25.2970,-81.0130,1.0,27.72,11111222 
ENP,ioos.station.NOAA.NDBC:CWAF1:1,2019-10-08T14:00:00Z,25.2970,-81.0130,1.0,27.7,11111222 
ENP,ioos.station.NOAA.NDBC:CWAF1:1,2019-10-08T15:00:00Z,25.2970,-81.0130,1.0,27.68,11111222 
ENP,ioos.station.NOAA.NDBC:CWAF1:1,2019-10-08T16:00:00Z,25.2970,-81.0130,1.0,27.78,11111222 
ENP,ioos.station.NOAA.NDBC:CWAF1:1,2019-10-08T17:00:00Z,25.2970,-81.0130,1.0,27.82,11111222 
ENP,ioos.station.NOAA.NDBC:CWAF1:1,2019-10-08T18:00:00Z,25.2970,-81.0130,1.0,27.78,11111222 
ENP,ioos.station.NOAA.NDBC:CWAF1:1,2019-10-08T19:00:00Z,25.2970,-81.0130,1.0,27.82,11111222 
ENP,ioos.station.NOAA.NDBC:CWAF1:1,2019-10-08T20:00:00Z,25.2970,-81.0130,1.0,27.86,11111222 
ENP,ioos.station.NOAA.NDBC:CWAF1:1,2019-10-08T22:00:00Z,25.2970,-81.0130,1.0,27.89,11111222 
ENP,ioos.station.NOAA.NDBC:CWAF1:1,2019-10-08T23:00:00Z,25.2970,-81.0130,1.0,27.88,11111222 
ENP,ioos.station.NOAA.NDBC:CWAF1:1,2019-10-09T01:00:00Z,25.2970,-81.0130,1.0,27.6,11111222 
ENP,ioos.station.NOAA.NDBC:CWAF1:1,2019-10-09T03:00:00Z,25.2970,-81.0130,1.0,27.16,11111222 
ENP,ioos.station.NOAA.NDBC:CWAF1:1,2019-10-09T04:00:00Z,25.2970,-81.0130,1.0,27.14,11111222 
ENP,ioos.station.NOAA.NDBC:CWAF1:1,2019-10-09T05:00:00Z,25.2970,-81.0130,1.0,27.2,11111222 
ENP,ioos.station.NOAA.NDBC:CWAF1:1,2019-10-09T06:00:00Z,25.2970,-81.0130,1.0,27.29,11111222 
ENP,ioos.station.NOAA.NDBC:CWAF1:1,2019-10-09T07:00:00Z,25.2970,-81.0130,1.0,27.29,11111222 
ENP,ioos.station.NOAA.NDBC:CWAF1:1,2019-10-09T08:00:00Z,25.2970,-81.0130,1.0,27.36,11111222 
ENP,ioos.station.NOAA.NDBC:CWAF1:1,2019-10-09T09:00:00Z,25.2970,-81.0130,1.0,27.42,11111222 
ENP,ioos.station.NOAA.NDBC:CWAF1:1,2019-10-09T10:00:00Z,25.2970,-81.0130,1.0,27.41,11111222 
ENP,ioos.station.NOAA.NDBC:CWAF1:1,2019-10-09T11:00:00Z,25.2970,-81.0130,1.0,27.41,11111222 
ENP,ioos.station.NOAA.NDBC:CWAF1:1,2019-10-09T12:00:00Z,25.2970,-81.0130,1.0,27.37,11111222 
ENP,ioos.station.NOAA.NDBC:CWAF1:1,2019-10-09T13:00:00Z,25.2970,-81.0130,1.0,27.25,11111222 
ENP,ioos.station.NOAA.NDBC:CWAF1:1,2019-10-09T14:00:00Z,25.2970,-81.0130,1.0,27.08,11111222 
ENP,ioos.station.NOAA.NDBC:CWAF1:1,2019-10-09T15:00:00Z,25.2970,-81.0130,1.0,27.37,11111222 
ENP,ioos.station.NOAA.NDBC:CWAF1:1,2019-10-09T16:00:00Z,25.2970,-81.0130,1.0,27.54,11111222 
ENP,ioos.station.NOAA.NDBC:CWAF1:1,2019-10-09T17:00:00Z,25.2970,-81.0130,1.0,27.68,11111222 
ENP,ioos.station.NOAA.NDBC:CWAF1:1,2019-10-09T18:00:00Z,25.2970,-81.0130,1.0,27.8,11111222 
ENP,ioos.station.NOAA.NDBC:CWAF1:1,2019-10-09T19:00:00Z,25.2970,-81.0130,1.0,27.96,11111222 
ENP,ioos.station.NOAA.NDBC:CWAF1:1,2019-10-09T20:00:00Z,25.2970,-81.0130,1.0,28.19,11111222 
ENP,ioos.station.NOAA.NDBC:CWAF1:1,2019-10-09T23:00:00Z,25.2970,-81.0130,1.0,28.44,11111222 
ENP,ioos.station.NOAA.NDBC:CWAF1:1,2019-10-10T01:00:00Z,25.2970,-81.0130,1.0,28.48,11111222 
ENP,ioos.station.NOAA.NDBC:CWAF1:1,2019-10-10T03:00:00Z,25.2970,-81.0130,1.0,28.12,11111222 
ENP,ioos.station.NOAA.NDBC:CWAF1:1,2019-10-10T04:00:00Z,25.2970,-81.0130,1.0,27.86,11111222 
ENP,ioos.station.NOAA.NDBC:CWAF1:1,2019-10-10T05:00:00Z,25.2970,-81.0130,1.0,27.72,11111222 
ENP,ioos.station.NOAA.NDBC:CWAF1:1,2019-10-10T06:00:00Z,25.2970,-81.0130,1.0,28.05,11111222 
ENP,ioos.station.NOAA.NDBC:CWAF1:1,2019-10-10T07:00:00Z,25.2970,-81.0130,1.0,28.19,11111222 
ENP,ioos.station.NOAA.NDBC:CWAF1:1,2019-10-10T08:00:00Z,25.2970,-81.0130,1.0,28.2,11111222 
ENP,ioos.station.NOAA.NDBC:CWAF1:1,2019-10-10T09:00:00Z,25.2970,-81.0130,1.0,28.2,11111222 
ENP,ioos.station.NOAA.NDBC:CWAF1:1,2019-10-10T10:00:00Z,25.2970,-81.0130,1.0,28.18,11111222 
ENP,ioos.station.NOAA.NDBC:CWAF1:1,2019-10-10T11:00:00Z,25.2970,-81.0130,1.0,28.18,11111222 
ENP,ioos.station.NOAA.NDBC:CWAF1:1,2019-10-10T12:00:00Z,25.2970,-81.0130,1.0,27.94,11111222 
ENP,ioos.station.NOAA.NDBC:CWAF1:1,2019-10-10T13:00:00Z,25.2970,-81.0130,1.0,27.32,11111222 
ENP,ioos.station.NOAA.NDBC:CWAF1:1,2019-10-10T14:00:00Z,25.2970,-81.0130,1.0,27.37,11111222 
ENP,ioos.station.NOAA.NDBC:CWAF1:1,2019-10-10T15:00:00Z,25.2970,-81.0130,1.0,27.81,11111222 
ENP,ioos.station.NOAA.NDBC:CWAF1:1,2019-10-10T16:00:00Z,25.2970,-81.0130,1.0,28.19,11111222 
ENP,ioos.station.NOAA.NDBC:CWAF1:1,2019-10-10T17:00:00Z,25.2970,-81.0130,1.0,28.53,11111222 
ENP,ioos.station.NOAA.NDBC:CWAF1:1,2019-10-10T18:00:00Z,25.2970,-81.0130,1.0,28.57,11111222 
ENP,ioos.station.NOAA.NDBC:CWAF1:1,2019-10-10T19:00:00Z,25.2970,-81.0130,1.0,28.78,11111222 
ENP,ioos.station.NOAA.NDBC:CWAF1:1,2019-10-10T20:00:00Z,25.2970,-81.0130,1.0,28.91,11111222 
ENP,ioos.station.NOAA.NDBC:CWAF1:1,2019-10-10T21:00:00Z,25.2970,-81.0130,1.0,28.97,11111222 
ENP,ioos.station.NOAA.NDBC:CWAF1:1,2019-10-10T22:00:00Z,25.2970,-81.0130,1.0,29.19,11111222 
ENP,ioos.station.NOAA.NDBC:CWAF1:1,2019-10-10T23:00:00Z,25.2970,-81.0130,1.0,28.96,11111222 
ENP,ioos.station.NOAA.NDBC:CWAF1:1,2019-10-11T00:00:00Z,25.2970,-81.0130,1.0,29.04,11111222 
ENP,ioos.station.NOAA.NDBC:CWAF1:1,2019-10-11T01:00:00Z,25.2970,-81.0130,1.0,29.03,11111222 
ENP,ioos.station.NOAA.NDBC:CWAF1:1,2019-10-11T03:00:00Z,25.2970,-81.0130,1.0,28.48,11111222 
ENP,ioos.station.NOAA.NDBC:CWAF1:1,2019-10-11T04:00:00Z,25.2970,-81.0130,1.0,28.39,11111222 
ENP,ioos.station.NOAA.NDBC:CWAF1:1,2019-10-11T05:00:00Z,25.2970,-81.0130,1.0,28.0,11111222 
ENP,ioos.station.NOAA.NDBC:CWAF1:1,2019-10-11T06:00:00Z,25.2970,-81.0130,1.0,28.02,11111222 
ENP,ioos.station.NOAA.NDBC:CWAF1:1,2019-10-11T07:00:00Z,25.2970,-81.0130,1.0,28.22,11111222 
ENP,ioos.station.NOAA.NDBC:CWAF1:1,2019-10-11T08:00:00Z,25.2970,-81.0130,1.0,28.12,11111222 
ENP,ioos.station.NOAA.NDBC:CWAF1:1,2019-10-11T09:00:00Z,25.2970,-81.0130,1.0,27.94,11111222 
ENP,ioos.station.NOAA.NDBC:CWAF1:1,2019-10-11T10:00:00Z,25.2970,-81.0130,1.0,28.45,11111222 
ENP,ioos.station.NOAA.NDBC:CWAF1:1,2019-10-11T11:00:00Z,25.2970,-81.0130,1.0,27.79,11111222 
ENP,ioos.station.NOAA.NDBC:CWAF1:1,2019-10-11T12:00:00Z,25.2970,-81.0130,1.0,27.56,11111222 
ENP,ioos.station.NOAA.NDBC:CWAF1:1,2019-10-11T13:00:00Z,25.2970,-81.0130,1.0,27.48,11111222 
ENP,ioos.station.NOAA.NDBC:CWAF1:1,2019-10-11T14:00:00Z,25.2970,-81.0130,1.0,27.6,11111222 
ENP,ioos.station.NOAA.NDBC:CWAF1:1,2019-10-11T15:00:00Z,25.2970,-81.0130,1.0,27.94,11111222 
ENP,ioos.station.NOAA.NDBC:CWAF1:1,2019-10-11T16:00:00Z,25.2970,-81.0130,1.0,28.36,11111222 
ENP,ioos.station.NOAA.NDBC:CWAF1:1,2019-10-11T17:00:00Z,25.2970,-81.0130,1.0,28.81,11111222 
ENP,ioos.station.NOAA.NDBC:CWAF1:1,2019-10-11T18:00:00Z,25.2970,-81.0130,1.0,29.48,11111222 
ENP,ioos.station.NOAA.NDBC:CWAF1:1,2019-10-11T19:00:00Z,25.2970,-81.0130,1.0,29.56,11111222 
ENP,ioos.station.NOAA.NDBC:CWAF1:1,2019-10-11T20:00:00Z,25.2970,-81.0130,1.0,29.36,11111222 
ENP,ioos.station.NOAA.NDBC:CWAF1:1,2019-10-11T21:00:00Z,25.2970,-81.0130,1.0,29.42,11111222 
ENP,ioos.station.NOAA.NDBC:CWAF1:1,2019-10-11T22:00:00Z,25.2970,-81.0130,1.0,29.39,11111222 
ENP,ioos.station.NOAA.NDBC:CWAF1:1,2019-10-11T23:00:00Z,25.2970,-81.0130,1.0,29.16,11111222 
ENP,ioos.station.NOAA.NDBC:CWAF1:1,2019-10-12T00:00:00Z,25.2970,-81.0130,1.0,28.87,11111222 
ENP,ioos.station.NOAA.NDBC:CWAF1:1,2019-10-12T01:00:00Z,25.2970,-81.0130,1.0,28.64,11111222 
ENP,ioos.station.NOAA.NDBC:CWAF1:1,2019-10-12T03:00:00Z,25.2970,-81.0130,1.0,28.15,11111222 
ENP,ioos.station.NOAA.NDBC:CWAF1:1,2019-10-12T04:00:00Z,25.2970,-81.0130,1.0,28.06,11111222 
ENP,ioos.station.NOAA.NDBC:CWAF1:1,2019-10-12T05:00:00Z,25.2970,-81.0130,1.0,27.71,11111222 
ENP,ioos.station.NOAA.NDBC:CWAF1:1,2019-10-12T06:00:00Z,25.2970,-81.0130,1.0,27.46,11111222 
ENP,ioos.station.NOAA.NDBC:CWAF1:1,2019-10-12T07:00:00Z,25.2970,-81.0130,1.0,27.76,11111222 
ENP,ioos.station.NOAA.NDBC:CWAF1:1,2019-10-12T08:00:00Z,25.2970,-81.0130,1.0,27.85,11111222 
ENP,ioos.station.NOAA.NDBC:CWAF1:1,2019-10-12T09:00:00Z,25.2970,-81.0130,1.0,27.82,11111222 
ENP,ioos.station.NOAA.NDBC:CWAF1:1,2019-10-12T10:00:00Z,25.2970,-81.0130,1.0,27.58,11111222 
ENP,ioos.station.NOAA.NDBC:CWAF1:1,2019-10-12T11:00:00Z,25.2970,-81.0130,1.0,27.44,11111222 
ENP,ioos.station.NOAA.NDBC:CWAF1:1,2019-10-12T12:00:00Z,25.2970,-81.0130,1.0,27.35,11111222 
ENP,ioos.station.NOAA.NDBC:CWAF1:1,2019-10-12T13:00:00Z,25.2970,-81.0130,1.0,27.35,11111222 
ENP,ioos.station.NOAA.NDBC:CWAF1:1,2019-10-12T14:00:00Z,25.2970,-81.0130,1.0,27.42,11111222 
ENP,ioos.station.NOAA.NDBC:CWAF1:1,2019-10-12T15:00:00Z,25.2970,-81.0130,1.0,27.75,11111222 
ENP,ioos.station.NOAA.NDBC:CWAF1:1,2019-10-12T16:00:00Z,25.2970,-81.0130,1.0,28.21,11111222 
ENP,ioos.station.NOAA.NDBC:CWAF1:1,2019-10-12T17:00:00Z,25.2970,-81.0130,1.0,28.62,11111222 
ENP,ioos.station.NOAA.NDBC:CWAF1:1,2019-10-12T18:00:00Z,25.2970,-81.0130,1.0,28.72,11111222 
ENP,ioos.station.NOAA.NDBC:CWAF1:1,2019-10-12T19:00:00Z,25.2970,-81.0130,1.0,28.8,11111222 
ENP,ioos.station.NOAA.NDBC:CWAF1:1,2019-10-12T20:00:00Z,25.2970,-81.0130,1.0,28.7,11111222 
ENP,ioos.station.NOAA.NDBC:CWAF1:1,2019-10-12T21:00:00Z,25.2970,-81.0130,1.0,28.62,11111222 
ENP,ioos.station.NOAA.NDBC:CWAF1:1,2019-10-12T22:00:00Z,25.2970,-81.0130,1.0,28.64,11111222 
ENP,ioos.station.NOAA.NDBC:CWAF1:1,2019-10-12T23:00:00Z,25.2970,-81.0130,1.0,28.47,11111222 
ENP,ioos.station.NOAA.NDBC:CWAF1:1,2019-10-13T00:00:00Z,25.2970,-81.0130,1.0,28.28,11111222 
ENP,ioos.station.NOAA.NDBC:CWAF1:1,2019-10-13T01:00:00Z,25.2970,-81.0130,1.0,28.11,11111222 
ENP,ioos.station.NOAA.NDBC:CWAF1:1,2019-10-13T03:00:00Z,25.2970,-81.0130,1.0,27.78,11111222 
ENP,ioos.station.NOAA.NDBC:CWAF1:1,2019-10-13T04:00:00Z,25.2970,-81.0130,1.0,27.64,11111222 
ENP,ioos.station.NOAA.NDBC:CWAF1:1,2019-10-13T05:00:00Z,25.2970,-81.0130,1.0,27.57,11111222 
ENP,ioos.station.NOAA.NDBC:CWAF1:1,2019-10-13T06:00:00Z,25.2970,-81.0130,1.0,27.16,11111222 
ENP,ioos.station.NOAA.NDBC:CWAF1:1,2019-10-13T07:00:00Z,25.2970,-81.0130,1.0,27.38,11111222 
ENP,ioos.station.NOAA.NDBC:CWAF1:1,2019-10-13T08:00:00Z,25.2970,-81.0130,1.0,27.39,11111222 
ENP,ioos.station.NOAA.NDBC:CWAF1:1,2019-10-13T09:00:00Z,25.2970,-81.0130,1.0,27.69,11111222 